Tracking 26321 objects as of 28-Nov-2022
HD Live streaming from Space Station
objects crossing your sky now

NOAA 16 DEB

Track NOAA 16 DEB now!
10-day predictions


NORAD ID: 41234
Int'l Code: 2000-055EP
Perigee: 681.4 km
Apogee: 808.2 km
Inclination: 98.9 °
Period: 99.6 minutes
Semi major axis: 7115 km
RCS: Unknown
Launch date: September 21, 2000
Source: United States (US)
Launch site: AIR FORCE WESTERN TEST RANGE (AFWTR)

Note: This is SATELLITE DEBRIS
aabbcc
Your satellite tracking list
Your tracking list is empty




NASA's NSSDC Master Catalog

Two Line Element Set (TLE):
1 41234U 00055EP  22331.47443281  .00005458  00000-0  14611-2 0  9995
2 41234  98.8920 156.5790 0089036 107.3540 253.7412 14.46331530365425
Source of the keplerian elements: AFSPC